5YCEW HKNW-HKNW

Flight info

Callsign 5YCEW
Flight time 3h 31m
Altitude 12000
Route NV DCT GV
Aircraft C208/L-SDFGR/C

Departure

Time 2026-05-09 06:56
Airport Nairobi Wilson Airport (HKNW)

Arrival

Time 2026-05-09 10:27
Airport Nairobi Wilson Airport (HKNW)
Time Latitude Longitude Altitude Speed Heading
2026-05-09 06:51 -1.31917 36.81348 5522 ft 0 kts 272°
2026-05-09 06:54 -1.31920 36.81336 5523 ft 6 kts 244°
2026-05-09 06:54 -1.31969 36.81287 5524 ft 11 kts 215°
2026-05-09 06:54 -1.32014 36.81300 5522 ft 0 kts 137°
2026-05-09 06:55 -1.32154 36.81438 5509 ft 62 kts 135°
2026-05-09 06:55 -1.32574 36.81861 5564 ft 102 kts 133°
2026-05-09 06:56 -1.33086 36.82380 5824 ft 107 kts 137°
2026-05-09 06:56 -1.33699 36.82907 6010 ft 127 kts 139°
2026-05-09 06:56 -1.34382 36.83502 6308 ft 131 kts 138°
2026-05-09 06:56 -1.35055 36.84112 6620 ft 132 kts 139°
2026-05-09 06:57 -1.35756 36.84711 6922 ft 133 kts 138°
2026-05-09 06:57 -1.36414 36.85345 7212 ft 133 kts 134°
2026-05-09 06:57 -1.37073 36.86011 7448 ft 139 kts 135°
2026-05-09 06:57 -1.37807 36.86725 7482 ft 153 kts 136°
2026-05-09 06:58 -1.38604 36.87475 7493 ft 161 kts 137°
2026-05-09 06:58 -1.39437 36.88245 7500 ft 165 kts 137°
2026-05-09 06:58 -1.40292 36.89025 7498 ft 167 kts 137°
2026-05-09 06:58 -1.41151 36.89813 7498 ft 168 kts 137°
2026-05-09 06:59 -1.42010 36.90605 7494 ft 168 kts 137°
2026-05-09 06:59 -1.42872 36.91397 7493 ft 168 kts 137°
2026-05-09 06:59 -1.43726 36.92172 7497 ft 168 kts 137°
2026-05-09 06:59 -1.44586 36.92958 7499 ft 168 kts 137°
2026-05-09 07:00 -1.45446 36.93747 7502 ft 168 kts 137°
2026-05-09 07:00 -1.46307 36.94535 7500 ft 168 kts 137°
2026-05-09 07:00 -1.47168 36.95321 7500 ft 168 kts 137°
2026-05-09 07:00 -1.48030 36.96107 7501 ft 168 kts 137°
2026-05-09 07:01 -1.48893 36.96894 7497 ft 168 kts 137°
2026-05-09 07:01 -1.49756 36.97681 7502 ft 168 kts 137°
2026-05-09 07:01 -1.50620 36.98466 7502 ft 168 kts 137°
2026-05-09 07:01 -1.51483 36.99253 7495 ft 168 kts 137°
2026-05-09 07:02 -1.52347 37.00039 7499 ft 168 kts 137°
2026-05-09 07:02 -1.53208 37.00825 7496 ft 168 kts 137°
2026-05-09 07:02 -1.54070 37.01611 7502 ft 168 kts 137°
2026-05-09 07:02 -1.54921 37.02386 7501 ft 168 kts 137°
2026-05-09 07:03 -1.55783 37.03172 7502 ft 168 kts 137°
2026-05-09 07:03 -1.56645 37.03959 7502 ft 168 kts 137°
2026-05-09 07:03 -1.57508 37.04745 7503 ft 168 kts 137°
2026-05-09 07:03 -1.58370 37.05531 7501 ft 168 kts 137°
2026-05-09 07:04 -1.59231 37.06316 7503 ft 168 kts 137°
2026-05-09 07:04 -1.60093 37.07103 7502 ft 168 kts 137°
2026-05-09 07:04 -1.60956 37.07891 7500 ft 168 kts 137°
2026-05-09 07:04 -1.61817 37.08676 7498 ft 167 kts 137°
2026-05-09 07:05 -1.62676 37.09461 7498 ft 167 kts 137°
2026-05-09 07:05 -1.63536 37.10245 7500 ft 167 kts 137°
2026-05-09 07:05 -1.64395 37.11028 7499 ft 167 kts 137°
2026-05-09 07:05 -1.65252 37.11809 7495 ft 167 kts 137°
2026-05-09 07:06 -1.66106 37.12589 7499 ft 166 kts 137°
2026-05-09 07:06 -1.66965 37.13373 7507 ft 167 kts 137°
2026-05-09 07:06 -1.67826 37.14156 7505 ft 168 kts 137°
2026-05-09 07:06 -1.68686 37.14941 7497 ft 168 kts 137°
2026-05-09 07:07 -1.69548 37.15728 7503 ft 168 kts 137°
2026-05-09 07:07 -1.70402 37.16521 7494 ft 168 kts 136°
2026-05-09 07:07 -1.71251 37.17318 7495 ft 168 kts 136°
2026-05-09 07:07 -1.72091 37.18103 7502 ft 168 kts 137°
2026-05-09 07:08 -1.72947 37.18894 7502 ft 168 kts 137°
2026-05-09 07:08 -1.73474 37.19379 7500 ft 167 kts 137°
2026-05-09 07:08 -1.74330 37.20166 7498 ft 167 kts 137°
2026-05-09 07:08 -1.75186 37.20949 7498 ft 167 kts 137°
2026-05-09 07:09 -1.76042 37.21732 7502 ft 167 kts 137°
2026-05-09 07:09 -1.76902 37.22515 7503 ft 167 kts 137°
2026-05-09 07:09 -1.77762 37.23298 7497 ft 168 kts 137°
2026-05-09 07:09 -1.78624 37.24086 7497 ft 168 kts 137°
2026-05-09 07:10 -1.79486 37.24874 7495 ft 168 kts 137°
2026-05-09 07:10 -1.80349 37.25662 7511 ft 169 kts 137°
2026-05-09 07:10 -1.81218 37.26457 7507 ft 169 kts 137°
2026-05-09 07:10 -1.82086 37.27251 7500 ft 169 kts 137°
2026-05-09 07:11 -1.82955 37.28042 7501 ft 169 kts 137°
2026-05-09 07:12 -1.83481 37.28522 7501 ft 168 kts 137°
2026-05-09 07:12 -1.84350 37.29314 7500 ft 169 kts 137°
2026-05-09 07:12 -1.85216 37.30101 7497 ft 168 kts 137°
2026-05-09 07:12 -1.86080 37.30889 7497 ft 168 kts 137°
2026-05-09 07:13 -1.86943 37.31675 7497 ft 168 kts 137°
2026-05-09 07:13 -1.87808 37.32460 7502 ft 168 kts 137°
2026-05-09 07:13 -1.88672 37.33247 7500 ft 168 kts 137°
2026-05-09 07:13 -1.89525 37.34027 7503 ft 169 kts 137°
2026-05-09 07:14 -1.90387 37.34815 7499 ft 168 kts 137°
2026-05-09 07:14 -1.90899 37.35283 7496 ft 168 kts 137°
2026-05-09 07:14 -1.91061 37.35431 7495 ft 168 kts 137°
2026-05-09 07:15 -1.91921 37.36216 7499 ft 168 kts 137°
2026-05-09 07:15 -1.92782 37.37001 7499 ft 168 kts 137°
2026-05-09 07:15 -1.93645 37.37788 7501 ft 168 kts 137°
2026-05-09 07:15 -1.94507 37.38575 7502 ft 168 kts 137°
2026-05-09 07:16 -1.95370 37.39363 7503 ft 168 kts 137°
2026-05-09 07:16 -1.96231 37.40150 7500 ft 168 kts 137°
2026-05-09 07:16 -1.97083 37.40929 7500 ft 168 kts 137°
2026-05-09 07:16 -1.97957 37.41725 7495 ft 168 kts 137°
2026-05-09 07:17 -1.98806 37.42499 7501 ft 168 kts 137°
2026-05-09 07:17 -1.99667 37.43285 7496 ft 168 kts 137°
2026-05-09 07:17 -2.00527 37.44069 7501 ft 167 kts 137°
2026-05-09 07:17 -2.01386 37.44854 7500 ft 167 kts 137°
2026-05-09 07:18 -2.02248 37.45640 7506 ft 168 kts 137°
2026-05-09 07:18 -2.03110 37.46429 7505 ft 168 kts 137°
2026-05-09 07:18 -2.03974 37.47218 7503 ft 168 kts 137°
2026-05-09 07:18 -2.04836 37.48006 7501 ft 168 kts 137°
2026-05-09 07:19 -2.05700 37.48793 7500 ft 168 kts 137°
2026-05-09 07:19 -2.06560 37.49578 7501 ft 167 kts 137°
2026-05-09 07:19 -2.07422 37.50364 7496 ft 168 kts 137°
2026-05-09 07:19 -2.08282 37.51149 7498 ft 167 kts 137°
2026-05-09 07:20 -2.09143 37.51934 7495 ft 167 kts 137°
2026-05-09 07:20 -2.09713 37.52454 7502 ft 167 kts 137°
2026-05-09 07:20 -2.10637 37.53299 7502 ft 167 kts 137°
2026-05-09 07:20 -2.11499 37.54084 7501 ft 168 kts 137°
2026-05-09 07:21 -2.12361 37.54871 7502 ft 168 kts 137°
2026-05-09 07:21 -2.13220 37.55657 7502 ft 168 kts 137°
2026-05-09 07:21 -2.14081 37.56444 7500 ft 167 kts 137°
2026-05-09 07:21 -2.14941 37.57228 7501 ft 167 kts 137°
2026-05-09 07:22 -2.15801 37.58013 7503 ft 168 kts 137°
2026-05-09 07:22 -2.16663 37.58799 7501 ft 167 kts 137°
2026-05-09 07:22 -2.17522 37.59585 7502 ft 167 kts 137°
2026-05-09 07:22 -2.18385 37.60370 7503 ft 168 kts 137°
2026-05-09 07:23 -2.19246 37.61156 7496 ft 168 kts 137°
2026-05-09 07:23 -2.20096 37.61932 7502 ft 168 kts 137°
2026-05-09 07:23 -2.20955 37.62720 7500 ft 167 kts 137°
2026-05-09 07:23 -2.21814 37.63505 7501 ft 167 kts 137°
2026-05-09 07:24 -2.22675 37.64290 7501 ft 167 kts 137°
2026-05-09 07:24 -2.23536 37.65076 7504 ft 168 kts 137°
2026-05-09 07:24 -2.24400 37.65866 7502 ft 168 kts 137°
2026-05-09 07:24 -2.25261 37.66653 7500 ft 168 kts 137°
2026-05-09 07:25 -2.26123 37.67439 7500 ft 168 kts 137°
2026-05-09 07:25 -2.26985 37.68226 7503 ft 168 kts 137°
2026-05-09 07:25 -2.27848 37.69012 7499 ft 168 kts 137°
2026-05-09 07:25 -2.28711 37.69799 7494 ft 168 kts 137°
2026-05-09 07:26 -2.29573 37.70586 7496 ft 168 kts 137°
2026-05-09 07:26 -2.30436 37.71375 7502 ft 168 kts 137°
2026-05-09 07:26 -2.31300 37.72165 7502 ft 168 kts 137°
2026-05-09 07:26 -2.32161 37.72952 7501 ft 168 kts 137°
2026-05-09 07:27 -2.33025 37.73740 7498 ft 168 kts 137°
2026-05-09 07:27 -2.33885 37.74525 7494 ft 167 kts 137°
2026-05-09 07:27 -2.34735 37.75300 7503 ft 168 kts 137°
2026-05-09 07:27 -2.35596 37.76088 7503 ft 168 kts 137°
2026-05-09 07:28 -2.36460 37.76878 7497 ft 168 kts 137°
2026-05-09 07:28 -2.37322 37.77667 7494 ft 168 kts 137°
2026-05-09 07:28 -2.38201 37.78442 7500 ft 168 kts 139°
2026-05-09 07:28 -2.39082 37.79209 7495 ft 168 kts 138°
2026-05-09 07:29 -2.39659 37.79723 7500 ft 168 kts 137°
2026-05-09 07:29 -2.40524 37.80506 7500 ft 168 kts 137°
2026-05-09 07:29 -2.41390 37.81294 7499 ft 168 kts 137°
2026-05-09 07:29 -2.42253 37.82085 7505 ft 168 kts 137°
2026-05-09 07:30 -2.43120 37.82877 7504 ft 169 kts 137°
2026-05-09 07:30 -2.43984 37.83667 7491 ft 168 kts 137°
2026-05-09 07:30 -2.44847 37.84455 7494 ft 168 kts 137°
2026-05-09 07:30 -2.45710 37.85241 7496 ft 168 kts 137°
2026-05-09 07:31 -2.46568 37.86024 7495 ft 168 kts 137°
2026-05-09 07:31 -2.47430 37.86810 7493 ft 168 kts 137°
2026-05-09 07:31 -2.48292 37.87600 7504 ft 168 kts 137°
2026-05-09 07:31 -2.49154 37.88399 7445 ft 171 kts 137°
2026-05-09 07:32 -2.50026 37.89216 7337 ft 172 kts 138°
2026-05-09 07:32 -2.50901 37.90019 7289 ft 168 kts 139°
2026-05-09 07:32 -2.51750 37.90794 7266 ft 161 kts 141°
2026-05-09 07:32 -2.52583 37.91540 7257 ft 160 kts 141°
2026-05-09 07:33 -2.53418 37.92305 7050 ft 167 kts 140°
2026-05-09 07:33 -2.55160 37.93917 6553 ft 173 kts 140°
2026-05-09 07:33 -2.56037 37.94732 6300 ft 170 kts 140°
2026-05-09 07:34 -2.56906 37.95524 6051 ft 168 kts 141°
2026-05-09 07:34 -2.57763 37.96306 5802 ft 167 kts 140°
2026-05-09 07:34 -2.58612 37.97084 5556 ft 169 kts 140°
2026-05-09 07:34 -2.59497 37.97875 5312 ft 170 kts 140°
2026-05-09 07:35 -2.60349 37.98642 5283 ft 161 kts 140°
2026-05-09 07:35 -2.61162 37.99383 5267 ft 157 kts 140°
2026-05-09 07:35 -2.61962 38.00117 5257 ft 156 kts 140°
2026-05-09 07:35 -2.62758 38.00843 5259 ft 155 kts 140°
2026-05-09 07:36 -2.63560 38.01568 5258 ft 155 kts 140°
2026-05-09 07:36 -2.64356 38.02294 5256 ft 154 kts 139°
2026-05-09 07:36 -2.65133 38.03014 5255 ft 154 kts 139°
2026-05-09 07:36 -2.65925 38.03732 5253 ft 154 kts 140°
2026-05-09 07:37 -2.66725 38.04440 5248 ft 153 kts 140°
2026-05-09 07:37 -2.67512 38.05163 5227 ft 155 kts 136°
2026-05-09 07:37 -2.68067 38.06104 5097 ft 156 kts 115°
2026-05-09 07:37 -2.68411 38.07114 4882 ft 146 kts 110°
2026-05-09 07:38 -2.68640 38.08116 4562 ft 150 kts 107°
2026-05-09 07:38 -2.68898 38.09115 4368 ft 149 kts 110°
2026-05-09 07:38 -2.69198 38.10100 4273 ft 146 kts 111°
2026-05-09 07:38 -2.69568 38.11023 4222 ft 143 kts 119°
2026-05-09 07:39 -2.70076 38.11896 3993 ft 141 kts 128°
2026-05-09 07:39 -2.70730 38.12503 3800 ft 121 kts 148°
2026-05-09 07:39 -2.71430 38.12914 3526 ft 108 kts 159°
2026-05-09 07:39 -2.72138 38.12989 3367 ft 102 kts 186°
2026-05-09 07:40 -2.72809 38.12852 3222 ft 96 kts 192°
2026-05-09 07:40 -2.73428 38.12660 3091 ft 88 kts 194°
2026-05-09 07:40 -2.73985 38.12498 3015 ft 83 kts 193°
2026-05-09 07:40 -2.74562 38.12333 2888 ft 87 kts 195°
2026-05-09 07:41 -2.75122 38.12164 2837 ft 76 kts 195°
2026-05-09 07:41 -2.75358 38.12081 2837 ft 9 kts 203°
2026-05-09 07:41 -2.75371 38.12094 2837 ft 7 kts 36°
2026-05-09 07:41 -2.75330 38.12129 2837 ft 6 kts 121°
2026-05-09 07:42 -2.75342 38.12149 2837 ft 0 kts 117°
2026-05-09 08:00 -2.75342 38.12150 2837 ft 1 kts 116°
2026-05-09 08:01 -2.75349 38.12163 2837 ft 4 kts 115°
2026-05-09 08:01 -2.75367 38.12209 2838 ft 10 kts 108°
2026-05-09 08:01 -2.75405 38.12287 2837 ft 15 kts 118°
2026-05-09 08:01 -2.75464 38.12398 2834 ft 19 kts 118°
2026-05-09 08:02 -2.75517 38.12495 2834 ft 5 kts 117°
2026-05-09 08:02 -2.75515 38.12511 2834 ft 5 kts 44°
2026-05-09 08:02 -2.75488 38.12492 2834 ft 0 kts 295°
2026-05-09 08:03 -2.75417 38.12352 2835 ft 44 kts 296°
2026-05-09 08:03 -2.75215 38.11959 2836 ft 81 kts 297°
2026-05-09 08:03 -2.74959 38.11417 2944 ft 90 kts 279°
2026-05-09 08:04 -2.74840 38.10770 3092 ft 96 kts 272°
2026-05-09 08:04 -2.74763 38.10086 3225 ft 105 kts 270°
2026-05-09 08:04 -2.74707 38.09341 3413 ft 110 kts 268°
2026-05-09 08:04 -2.74669 38.08598 3692 ft 106 kts 265°
2026-05-09 08:05 -2.74654 38.07879 4000 ft 99 kts 264°
2026-05-09 08:05 -2.74637 38.07148 4147 ft 110 kts 264°
2026-05-09 08:05 -2.74652 38.06348 4316 ft 118 kts 262°
2026-05-09 08:05 -2.74677 38.05523 4563 ft 118 kts 263°
2026-05-09 08:06 -2.74693 38.04698 4824 ft 118 kts 263°
2026-05-09 08:06 -2.74691 38.03888 5054 ft 117 kts 263°
2026-05-09 08:06 -2.74680 38.03077 5310 ft 116 kts 261°
2026-05-09 08:06 -2.74726 38.02280 5562 ft 114 kts 256°
2026-05-09 08:07 -2.74792 38.01495 5809 ft 112 kts 255°
2026-05-09 08:07 -2.74847 38.00723 6041 ft 110 kts 255°
2026-05-09 08:07 -2.74886 37.99974 6256 ft 109 kts 255°
2026-05-09 08:07 -2.74946 37.99187 6381 ft 118 kts 255°
2026-05-09 08:08 -2.75047 37.98328 6467 ft 131 kts 254°
2026-05-09 08:08 -2.75164 37.97389 6485 ft 144 kts 258°
2026-05-09 08:08 -2.75151 37.96341 6494 ft 156 kts 266°
2026-05-09 08:08 -2.75077 37.95258 6419 ft 155 kts 268°
2026-05-09 08:09 -2.74984 37.94168 6471 ft 160 kts 269°
2026-05-09 08:09 -2.74883 37.93029 6507 ft 167 kts 270°
2026-05-09 08:09 -2.74827 37.91865 6504 ft 167 kts 269°
2026-05-09 08:09 -2.74780 37.90706 6520 ft 170 kts 269°
2026-05-09 08:10 -2.74622 37.89511 6535 ft 175 kts 274°
2026-05-09 08:10 -2.74415 37.88296 6528 ft 178 kts 274°
2026-05-09 08:10 -2.74212 37.87057 6520 ft 181 kts 274°
2026-05-09 08:10 -2.74005 37.85821 6516 ft 180 kts 274°
2026-05-09 08:11 -2.73800 37.84604 6513 ft 180 kts 274°
2026-05-09 08:11 -2.73593 37.83357 6406 ft 183 kts 274°
2026-05-09 08:11 -2.73377 37.82082 6284 ft 187 kts 274°
2026-05-09 08:11 -2.73158 37.80798 6160 ft 188 kts 274°
2026-05-09 08:12 -2.72721 37.78231 6034 ft 184 kts 274°
2026-05-09 08:12 -2.72503 37.76981 6027 ft 181 kts 275°
2026-05-09 08:12 -2.72290 37.75749 6021 ft 179 kts 274°
2026-05-09 08:13 -2.72085 37.74541 6018 ft 178 kts 274°
2026-05-09 08:13 -2.71879 37.73323 6017 ft 176 kts 274°
2026-05-09 08:13 -2.71676 37.72109 6017 ft 176 kts 274°
2026-05-09 08:13 -2.71471 37.70904 6016 ft 175 kts 274°
2026-05-09 08:14 -2.71266 37.69704 6018 ft 175 kts 274°
2026-05-09 08:14 -2.71064 37.68515 6019 ft 175 kts 274°
2026-05-09 08:14 -2.70859 37.67315 6020 ft 174 kts 274°
2026-05-09 08:14 -2.70654 37.66113 6021 ft 176 kts 274°
2026-05-09 08:15 -2.70446 37.64908 6020 ft 176 kts 274°
2026-05-09 08:15 -2.70236 37.63699 6016 ft 176 kts 274°
2026-05-09 08:15 -2.70029 37.62489 6014 ft 176 kts 273°
2026-05-09 08:15 -2.69824 37.61291 6013 ft 174 kts 273°
2026-05-09 08:16 -2.69624 37.60114 6022 ft 174 kts 274°
2026-05-09 08:16 -2.69421 37.58917 6026 ft 175 kts 274°
2026-05-09 08:16 -2.69217 37.57718 6035 ft 175 kts 274°
2026-05-09 08:16 -2.69011 37.56519 6069 ft 174 kts 274°
2026-05-09 08:17 -2.68809 37.55332 6095 ft 172 kts 274°
2026-05-09 08:17 -2.68605 37.54147 6121 ft 174 kts 274°
2026-05-09 08:17 -2.68469 37.53355 6130 ft 174 kts 274°
2026-05-09 08:17 -2.68262 37.52154 6135 ft 176 kts 275°
2026-05-09 08:18 -2.68016 37.50948 6131 ft 178 kts 277°
2026-05-09 08:18 -2.67745 37.49739 6126 ft 179 kts 277°
2026-05-09 08:18 -2.67411 37.48129 6126 ft 178 kts 276°
2026-05-09 08:18 -2.67247 37.47311 6130 ft 178 kts 276°
2026-05-09 08:19 -2.66994 37.46093 6134 ft 179 kts 277°
2026-05-09 08:19 -2.66744 37.44891 6142 ft 179 kts 276°
2026-05-09 08:19 -2.66498 37.43667 6138 ft 180 kts 276°
2026-05-09 08:19 -2.66239 37.42436 5899 ft 179 kts 277°
2026-05-09 08:20 -2.65983 37.41252 5517 ft 171 kts 278°
2026-05-09 08:20 -2.65728 37.40097 5125 ft 167 kts 278°
2026-05-09 08:20 -2.65507 37.39004 4942 ft 155 kts 278°
2026-05-09 08:20 -2.65300 37.37975 4779 ft 148 kts 279°
2026-05-09 08:21 -2.65100 37.36997 4677 ft 141 kts 278°
2026-05-09 08:21 -2.64906 37.36048 4581 ft 137 kts 279°
2026-05-09 08:21 -2.64717 37.35144 4552 ft 130 kts 278°
2026-05-09 08:21 -2.64552 37.34273 4524 ft 126 kts 275°
2026-05-09 08:22 -2.64373 37.33442 4567 ft 120 kts 284°
2026-05-09 08:22 -2.64112 37.32652 4562 ft 118 kts 284°
2026-05-09 08:22 -2.63898 37.31842 4488 ft 122 kts 280°
2026-05-09 08:22 -2.63756 37.31054 4444 ft 114 kts 269°
2026-05-09 08:23 -2.63808 37.30276 4383 ft 109 kts 257°
2026-05-09 08:23 -2.63954 37.29538 4310 ft 110 kts 253°
2026-05-09 08:23 -2.64080 37.28777 4251 ft 108 kts 260°
2026-05-09 08:23 -2.64141 37.28043 4213 ft 106 kts 262°
2026-05-09 08:24 -2.64211 37.27290 4077 ft 112 kts 258°
2026-05-09 08:24 -2.64318 37.26538 3887 ft 108 kts 260°
2026-05-09 08:24 -2.64412 37.25809 3725 ft 101 kts 261°
2026-05-09 08:24 -2.64479 37.25231 3718 ft 58 kts 263°
2026-05-09 08:25 -2.64511 37.24968 3712 ft 29 kts 262°
2026-05-09 08:25 -2.64533 37.24809 3716 ft 15 kts 238°
2026-05-09 08:25 -2.64572 37.24799 3713 ft 0 kts 167°
2026-05-09 09:05 -2.64571 37.24799 3713 ft 0 kts 167°
2026-05-09 09:16 -2.64570 37.24799 3713 ft 0 kts 167°
2026-05-09 09:27 -2.64569 37.24799 3716 ft 0 kts 167°
2026-05-09 09:36 -2.64569 37.24798 3712 ft 0 kts 167°
2026-05-09 09:39 -2.64568 37.24798 3712 ft 0 kts 167°
2026-05-09 09:50 -2.64567 37.24798 3712 ft 0 kts 167°
2026-05-09 09:53 -2.64568 37.24798 3712 ft 0 kts 167°
2026-05-09 09:53 -2.64570 37.24798 3713 ft 1 kts 186°
2026-05-09 09:53 -2.64566 37.24779 3712 ft 7 kts 301°
2026-05-09 09:54 -2.64538 37.24756 3712 ft 1 kts 35°
2026-05-09 09:54 -2.64533 37.24774 3716 ft 0 kts 83°
2026-05-09 09:55 -2.64531 37.24792 3716 ft 14 kts 84°
2026-05-09 09:55 -2.64503 37.25025 3720 ft 52 kts 83°
2026-05-09 09:55 -2.64425 37.25687 3734 ft 88 kts 84°
2026-05-09 09:56 -2.64361 37.26104 3789 ft 94 kts 83°
2026-05-09 09:56 -2.64032 37.26672 3893 ft 104 kts 27°
2026-05-09 09:56 -2.63323 37.26717 4067 ft 104 kts 352°
2026-05-09 09:56 -2.62570 37.26591 4155 ft 115 kts 348°
2026-05-09 09:57 -2.61792 37.26333 4252 ft 121 kts 322°
2026-05-09 09:57 -2.61282 37.25671 4383 ft 122 kts 294°
2026-05-09 09:57 -2.60851 37.24936 4508 ft 126 kts 303°
2026-05-09 09:57 -2.60217 37.24301 4635 ft 131 kts 320°
2026-05-09 09:58 -2.59435 37.23813 4768 ft 135 kts 331°
2026-05-09 09:58 -2.58578 37.23422 4883 ft 137 kts 336°
2026-05-09 09:58 -2.57689 37.23080 5006 ft 137 kts 339°
2026-05-09 09:58 -2.56786 37.22764 5126 ft 138 kts 340°
2026-05-09 09:59 -2.55874 37.22455 5250 ft 138 kts 341°
2026-05-09 09:59 -2.54956 37.22148 5383 ft 140 kts 341°
2026-05-09 09:59 -2.54026 37.21840 5511 ft 141 kts 341°
2026-05-09 09:59 -2.53090 37.21532 5633 ft 142 kts 341°
2026-05-09 10:00 -2.52153 37.21223 5757 ft 141 kts 340°
2026-05-09 10:00 -2.51218 37.20911 5880 ft 142 kts 340°
2026-05-09 10:00 -2.50283 37.20602 6002 ft 141 kts 340°
2026-05-09 10:00 -2.49346 37.20289 6131 ft 141 kts 340°
2026-05-09 10:01 -2.48420 37.19983 6256 ft 142 kts 340°
2026-05-09 10:01 -2.47479 37.19672 6381 ft 143 kts 340°
2026-05-09 10:01 -2.46538 37.19360 6505 ft 142 kts 340°
2026-05-09 10:01 -2.45595 37.19046 6627 ft 143 kts 340°
2026-05-09 10:02 -2.44650 37.18735 6753 ft 143 kts 340°
2026-05-09 10:02 -2.43701 37.18421 6882 ft 144 kts 340°
2026-05-09 10:02 -2.42755 37.18108 7010 ft 143 kts 340°
2026-05-09 10:02 -2.41815 37.17796 7138 ft 142 kts 340°
2026-05-09 10:03 -2.40874 37.17482 7264 ft 142 kts 340°
2026-05-09 10:03 -2.39935 37.17169 7386 ft 143 kts 340°
2026-05-09 10:03 -2.38990 37.16858 7501 ft 143 kts 341°
2026-05-09 10:03 -2.38048 37.16548 7629 ft 142 kts 340°
2026-05-09 10:04 -2.37123 37.16240 7752 ft 142 kts 340°
2026-05-09 10:04 -2.36185 37.15930 7879 ft 142 kts 340°
2026-05-09 10:04 -2.35246 37.15619 7973 ft 145 kts 340°
2026-05-09 10:04 -2.34263 37.15292 7983 ft 153 kts 340°
2026-05-09 10:05 -2.33236 37.14953 7991 ft 157 kts 340°
2026-05-09 10:05 -2.32183 37.14604 7994 ft 162 kts 340°
2026-05-09 10:05 -2.31100 37.14249 7993 ft 165 kts 341°
2026-05-09 10:05 -2.30001 37.13885 7989 ft 166 kts 340°
2026-05-09 10:06 -2.28895 37.13520 7992 ft 168 kts 340°
2026-05-09 10:06 -2.27790 37.13154 8063 ft 165 kts 341°
2026-05-09 10:06 -2.26719 37.12799 8187 ft 160 kts 340°
2026-05-09 10:06 -2.25677 37.12452 8318 ft 156 kts 340°
2026-05-09 10:07 -2.24661 37.12113 8438 ft 152 kts 340°
2026-05-09 10:07 -2.23661 37.11779 8482 ft 155 kts 340°
2026-05-09 10:07 -2.22625 37.11434 8489 ft 159 kts 340°
2026-05-09 10:07 -2.21569 37.11081 8496 ft 161 kts 340°
2026-05-09 10:08 -2.20495 37.10726 8499 ft 163 kts 340°
2026-05-09 10:08 -2.19411 37.10368 8501 ft 165 kts 340°
2026-05-09 10:08 -2.18320 37.10006 8501 ft 166 kts 340°
2026-05-09 10:08 -2.17226 37.09645 8514 ft 165 kts 341°
2026-05-09 10:09 -2.16132 37.09284 8521 ft 166 kts 340°
2026-05-09 10:09 -2.15035 37.08921 8523 ft 166 kts 340°
2026-05-09 10:09 -2.13942 37.08550 8525 ft 166 kts 340°
2026-05-09 10:09 -2.12848 37.08177 8529 ft 166 kts 340°
2026-05-09 10:10 -2.11749 37.07805 8530 ft 167 kts 340°
2026-05-09 10:10 -2.10661 37.07438 8528 ft 167 kts 340°
2026-05-09 10:10 -2.09557 37.07070 8527 ft 167 kts 340°
2026-05-09 10:10 -2.08459 37.06703 8526 ft 166 kts 340°
2026-05-09 10:11 -2.07363 37.06339 8526 ft 166 kts 340°
2026-05-09 10:11 -2.06265 37.05974 8527 ft 167 kts 340°
2026-05-09 10:11 -2.05161 37.05608 8530 ft 167 kts 340°
2026-05-09 10:11 -2.04050 37.05240 8528 ft 167 kts 340°
2026-05-09 10:12 -2.02940 37.04873 8532 ft 169 kts 341°
2026-05-09 10:12 -2.01819 37.04504 8525 ft 173 kts 341°
2026-05-09 10:12 -2.00669 37.04127 8528 ft 179 kts 341°
2026-05-09 10:12 -1.99474 37.03731 8527 ft 183 kts 341°
2026-05-09 10:13 -1.98260 37.03331 8532 ft 185 kts 340°
2026-05-09 10:13 -1.97032 37.02924 8536 ft 186 kts 340°
2026-05-09 10:13 -1.95802 37.02510 8533 ft 186 kts 341°
2026-05-09 10:13 -1.94564 37.02104 8535 ft 187 kts 341°
2026-05-09 10:14 -1.93322 37.01692 8535 ft 188 kts 341°
2026-05-09 10:14 -1.92100 37.01284 8539 ft 188 kts 340°
2026-05-09 10:14 -1.90857 37.00866 8544 ft 189 kts 341°
2026-05-09 10:14 -1.89607 37.00454 8538 ft 190 kts 341°
2026-05-09 10:15 -1.88352 37.00041 8535 ft 190 kts 341°
2026-05-09 10:15 -1.87098 36.99625 8540 ft 190 kts 341°
2026-05-09 10:15 -1.85843 36.99210 8533 ft 189 kts 341°
2026-05-09 10:15 -1.84594 36.98794 8535 ft 188 kts 341°
2026-05-09 10:16 -1.83354 36.98377 8535 ft 188 kts 341°
2026-05-09 10:16 -1.82128 36.97970 8534 ft 188 kts 341°
2026-05-09 10:16 -1.80890 36.97564 8535 ft 187 kts 341°
2026-05-09 10:16 -1.79654 36.97168 8539 ft 186 kts 341°
2026-05-09 10:17 -1.78420 36.96772 8544 ft 187 kts 341°
2026-05-09 10:17 -1.77185 36.96372 8545 ft 187 kts 341°
2026-05-09 10:17 -1.75952 36.95966 8542 ft 186 kts 341°
2026-05-09 10:17 -1.74724 36.95560 8550 ft 187 kts 341°
2026-05-09 10:18 -1.73485 36.95152 8547 ft 187 kts 341°
2026-05-09 10:18 -1.72247 36.94742 8547 ft 188 kts 341°
2026-05-09 10:18 -1.71008 36.94333 8540 ft 187 kts 341°
2026-05-09 10:18 -1.69770 36.93920 8541 ft 188 kts 340°
2026-05-09 10:19 -1.68532 36.93508 8545 ft 187 kts 341°
2026-05-09 10:19 -1.67312 36.93104 8546 ft 187 kts 341°
2026-05-09 10:19 -1.66076 36.92697 8545 ft 187 kts 341°
2026-05-09 10:19 -1.64839 36.92286 8545 ft 188 kts 340°
2026-05-09 10:20 -1.63600 36.91876 8545 ft 187 kts 341°
2026-05-09 10:20 -1.62361 36.91467 8545 ft 188 kts 341°
2026-05-09 10:20 -1.61124 36.91060 8558 ft 187 kts 341°
2026-05-09 10:20 -1.59891 36.90653 8556 ft 187 kts 341°
2026-05-09 10:21 -1.58659 36.90239 8564 ft 186 kts 341°
2026-05-09 10:21 -1.57429 36.89830 8568 ft 186 kts 341°
2026-05-09 10:21 -1.56201 36.89422 8567 ft 186 kts 341°
2026-05-09 10:21 -1.54969 36.89014 8565 ft 186 kts 341°
2026-05-09 10:22 -1.53743 36.88608 8554 ft 185 kts 341°
2026-05-09 10:22 -1.52518 36.88200 8561 ft 186 kts 341°
2026-05-09 10:22 -1.51288 36.87793 8562 ft 186 kts 341°
2026-05-09 10:22 -1.50062 36.87388 8565 ft 185 kts 341°
2026-05-09 10:23 -1.48841 36.86986 8562 ft 185 kts 341°
2026-05-09 10:23 -1.47599 36.86574 8329 ft 197 kts 341°
2026-05-09 10:23 -1.46281 36.86134 8079 ft 201 kts 341°
2026-05-09 10:23 -1.44975 36.85693 7827 ft 193 kts 342°
2026-05-09 10:24 -1.43723 36.85279 7572 ft 187 kts 342°
2026-05-09 10:24 -1.42527 36.84889 7314 ft 173 kts 342°
2026-05-09 10:24 -1.41418 36.84527 7057 ft 163 kts 342°
2026-05-09 10:24 -1.40356 36.84177 6807 ft 158 kts 342°
2026-05-09 10:25 -1.39326 36.83839 6614 ft 151 kts 342°
2026-05-09 10:25 -1.38373 36.83526 6586 ft 138 kts 341°
2026-05-09 10:25 -1.37494 36.83234 6564 ft 129 kts 342°
2026-05-09 10:25 -1.36626 36.83128 6536 ft 121 kts
2026-05-09 10:26 -1.35778 36.83151 6357 ft 124 kts
2026-05-09 10:26 -1.34910 36.83197 6092 ft 123 kts
2026-05-09 10:26 -1.34059 36.83202 5844 ft 118 kts 349°
2026-05-09 10:26 -1.33451 36.82768 5722 ft 106 kts 308°
2026-05-09 10:27 -1.32948 36.82238 5536 ft 103 kts 314°
2026-05-09 10:27 -1.32475 36.81763 5501 ft 84 kts 315°
2026-05-09 10:27 -1.32130 36.81414 5510 ft 51 kts 314°
2026-05-09 10:27 -1.31999 36.81283 5523 ft 12 kts 328°
2026-05-09 10:28 -1.31956 36.81308 5524 ft 10 kts 41°
2026-05-09 10:28 -1.31898 36.81351 5522 ft 7 kts 102°
2026-05-09 10:28 -1.31908 36.81359 5522 ft 0 kts 171°
2026-05-09 10:32 -1.31907 36.81359 5522 ft 0 kts 171°
2026-05-09 10:38 -1.31911 36.81359 5522 ft 3 kts 174°
2026-05-09 10:38 -1.31938 36.81332 5523 ft 8 kts 251°
2026-05-09 10:38 -1.31937 36.81276 5526 ft 9 kts 302°
2026-05-09 10:38 -1.31910 36.81216 5530 ft 7 kts 258°
2026-05-09 10:39 -1.31946 36.81225 5528 ft 11 kts 136°
2026-05-09 10:39 -1.32098 36.81380 5514 ft 53 kts 135°
2026-05-09 10:39 -1.32442 36.81727 5502 ft 87 kts 133°
2026-05-09 10:39 -1.32870 36.82196 5621 ft 95 kts 132°
2026-05-09 10:40 -1.33391 36.82515 5818 ft 93 kts 175°
2026-05-09 10:40 -1.33882 36.82144 5972 ft 102 kts 248°
2026-05-09 10:40 -1.33800 36.81418 6116 ft 112 kts 291°
2026-05-09 10:40 -1.33493 36.80701 6307 ft 115 kts 288°
2026-05-09 10:41 -1.33171 36.79939 6449 ft 123 kts 290°
2026-05-09 10:41 -1.32817 36.79126 6608 ft 131 kts 291°
2026-05-09 10:41 -1.32442 36.78285 6763 ft 136 kts 291°
2026-05-09 10:41 -1.32054 36.77409 6926 ft 140 kts 291°
2026-05-09 10:42 -1.31657 36.76508 7057 ft 142 kts 291°
2026-05-09 10:42 -1.31255 36.75593 7205 ft 144 kts 291°
2026-05-09 10:42 -1.30847 36.74667 7348 ft 146 kts 291°
2026-05-09 10:42 -1.30182 36.73922 7497 ft 148 kts 334°
2026-05-09 10:43 -1.29246 36.73514 7657 ft 149 kts 338°
2026-05-09 10:43 -1.28240 36.73322 7803 ft 149 kts 11°
2026-05-09 10:43 -1.27355 36.73800 7956 ft 145 kts 46°
2026-05-09 10:43 -1.26891 36.74283 8058 ft 146 kts 50°
2026-05-09 10:44 -1.26216 36.75040 8220 ft 147 kts 52°
2026-05-09 10:44 -1.25551 36.75813 8362 ft 147 kts 52°
2026-05-09 10:44 -1.24887 36.76591 8464 ft 149 kts 52°
2026-05-09 10:44 -1.23972 36.77673 8493 ft 159 kts 53°
2026-05-09 10:45 -1.23484 36.78256 8500 ft 164 kts 53°
2026-05-09 10:46 -1.20270 36.81825 8502 ft 179 kts 37°
2026-05-09 10:46 -1.19158 36.82409 8501 ft 182 kts 22°
2026-05-09 10:46 -1.17953 36.82770 8499 ft 184 kts 14°
2026-05-09 10:46 -1.16686 36.83005 8503 ft 185 kts
2026-05-09 10:47 -1.15411 36.83180 8498 ft 185 kts
2026-05-09 10:47 -1.14127 36.83331 8498 ft 185 kts
2026-05-09 10:47 -1.12849 36.83474 8496 ft 185 kts
2026-05-09 10:47 -1.11571 36.83612 8505 ft 185 kts
2026-05-09 10:48 -1.10289 36.83746 8498 ft 185 kts
2026-05-09 10:48 -1.09006 36.83880 8501 ft 185 kts
2026-05-09 10:48 -1.07723 36.84017 8498 ft 186 kts
2026-05-09 10:48 -1.06436 36.84152 8491 ft 186 kts
2026-05-09 10:49 -1.05155 36.84282 8497 ft 185 kts
2026-05-09 10:49 -1.03874 36.84413 8499 ft 185 kts
2026-05-09 10:49 -1.02595 36.84548 8500 ft 185 kts
2026-05-09 10:49 -1.01313 36.84680 8503 ft 185 kts
2026-05-09 10:50 -1.00031 36.84814 8499 ft 185 kts
2026-05-09 10:50 -0.98752 36.84954 8505 ft 185 kts
2026-05-09 10:50 -0.97467 36.85085 8501 ft 185 kts
2026-05-09 10:50 -0.96204 36.85220 8499 ft 185 kts
2026-05-09 10:51 -0.94931 36.85360 8499 ft 184 kts
2026-05-09 10:51 -0.93654 36.85494 8499 ft 184 kts
2026-05-09 10:51 -0.92378 36.85627 8501 ft 184 kts
2026-05-09 10:51 -0.91101 36.85759 8498 ft 184 kts
2026-05-09 10:52 -0.89829 36.85888 8504 ft 185 kts
2026-05-09 10:52 -0.88549 36.86019 8499 ft 184 kts
2026-05-09 10:52 -0.87273 36.86152 8500 ft 184 kts
2026-05-09 10:52 -0.86000 36.86285 8497 ft 184 kts
2026-05-09 10:53 -0.84725 36.86421 8498 ft 185 kts
2026-05-09 10:53 -0.83448 36.86556 8500 ft 185 kts
2026-05-09 10:53 -0.82172 36.86688 8497 ft 184 kts
2026-05-09 10:53 -0.80898 36.86818 8498 ft 184 kts
2026-05-09 10:54 -0.79620 36.86945 8496 ft 184 kts
2026-05-09 10:54 -0.78346 36.87075 8500 ft 184 kts
2026-05-09 10:54 -0.77064 36.87204 8491 ft 185 kts
2026-05-09 10:54 -0.75798 36.87335 8489 ft 185 kts
2026-05-09 10:55 -0.74523 36.87469 8489 ft 183 kts
2026-05-09 10:55 -0.73262 36.87601 8492 ft 182 kts
2026-05-09 10:55 -0.72000 36.87730 8495 ft 183 kts
2026-05-09 10:55 -0.70732 36.87861 8492 ft 183 kts
2026-05-09 10:56 -0.69472 36.87995 8491 ft 182 kts
2026-05-09 10:56 -0.68208 36.88125 8487 ft 183 kts
2026-05-09 10:56 -0.66944 36.88255 8492 ft 183 kts
2026-05-09 10:56 -0.65675 36.88387 8491 ft 183 kts
2026-05-09 10:57 -0.64399 36.88519 8496 ft 185 kts
2026-05-09 10:57 -0.63119 36.88657 8490 ft 185 kts
2026-05-09 10:57 -0.61841 36.88797 8492 ft 185 kts
2026-05-09 10:57 -0.60563 36.88932 8494 ft 185 kts
2026-05-09 10:58 -0.59284 36.89065 8484 ft 184 kts
2026-05-09 10:58 -0.58025 36.89197 8489 ft 184 kts
2026-05-09 10:58 -0.56751 36.89332 8493 ft 185 kts
2026-05-09 10:58 -0.55479 36.89464 8490 ft 184 kts
2026-05-09 10:59 -0.54209 36.89596 8486 ft 183 kts
2026-05-09 10:59 -0.52937 36.89727 8491 ft 184 kts
2026-05-09 10:59 -0.51667 36.89857 8488 ft 183 kts
2026-05-09 10:59 -0.50395 36.89991 8488 ft 183 kts
2026-05-09 11:00 -0.49126 36.90124 8493 ft 184 kts
2026-05-09 11:00 -0.47857 36.90259 8489 ft 184 kts
2026-05-09 11:00 -0.46581 36.90393 8493 ft 185 kts
2026-05-09 11:00 -0.45300 36.90529 8489 ft 186 kts
2026-05-09 11:01 -0.44013 36.90665 8488 ft 186 kts
2026-05-09 11:01 -0.42730 36.90798 8489 ft 185 kts
2026-05-09 11:01 -0.41450 36.90930 8495 ft 185 kts
2026-05-09 11:01 -0.40168 36.91064 8486 ft 185 kts
2026-05-09 11:02 -0.38884 36.91199 8492 ft 186 kts
2026-05-09 11:02 -0.37593 36.91336 8496 ft 187 kts
2026-05-09 11:02 -0.36298 36.91472 8492 ft 187 kts
2026-05-09 11:02 -0.35024 36.91604 8491 ft 187 kts
2026-05-09 11:03 -0.33715 36.91735 8491 ft 186 kts
2026-05-09 11:03 -0.32424 36.91871 8488 ft 187 kts
2026-05-09 11:03 -0.31125 36.92012 8471 ft 188 kts
2026-05-09 11:03 -0.29836 36.92145 8467 ft 189 kts
2026-05-09 11:04 -0.28530 36.92282 8463 ft 189 kts
2026-05-09 11:04 -0.27226 36.92420 8456 ft 188 kts
2026-05-09 11:04 -0.25927 36.92558 8451 ft 187 kts
2026-05-09 11:04 -0.24633 36.92692 8450 ft 186 kts
2026-05-09 11:05 -0.23344 36.92825 8450 ft 187 kts
2026-05-09 11:05 -0.22055 36.92961 8454 ft 186 kts
2026-05-09 11:05 -0.20769 36.93091 8452 ft 184 kts
2026-05-09 11:05 -0.19500 36.93215 8451 ft 183 kts
2026-05-09 11:06 -0.18234 36.93346 8454 ft 183 kts
2026-05-09 11:06 -0.16957 36.93484 8475 ft 187 kts
2026-05-09 11:06 -0.15655 36.93625 8472 ft 190 kts
2026-05-09 11:06 -0.14328 36.93768 8485 ft 194 kts
2026-05-09 11:07 -0.12973 36.93915 8465 ft 195 kts
2026-05-09 11:07 -0.11623 36.94058 8438 ft 194 kts
2026-05-09 11:07 -0.10294 36.94193 8433 ft 191 kts
2026-05-09 11:07 -0.08978 36.94327 8433 ft 189 kts
2026-05-09 11:08 -0.07672 36.94466 8435 ft 188 kts
2026-05-09 11:08 -0.06387 36.94604 8439 ft 188 kts
2026-05-09 11:08 -0.05087 36.94742 8443 ft 187 kts
2026-05-09 11:08 -0.03797 36.94877 8442 ft 186 kts
2026-05-09 11:09 -0.02508 36.95010 8444 ft 186 kts
2026-05-09 11:09 -0.01223 36.95143 8446 ft 185 kts
2026-05-09 11:09 0.00062 36.95281 8448 ft 186 kts
2026-05-09 11:09 0.01352 36.95427 8446 ft 187 kts
2026-05-09 11:10 0.02645 36.95570 8443 ft 186 kts
2026-05-09 11:10 0.03933 36.95710 8444 ft 186 kts
2026-05-09 11:10 0.05218 36.95849 8444 ft 186 kts
2026-05-09 11:10 0.06505 36.95984 8444 ft 186 kts
2026-05-09 11:11 0.07791 36.96120 8445 ft 186 kts
2026-05-09 11:11 0.09069 36.96259 8443 ft 184 kts
2026-05-09 11:11 0.10345 36.96391 8442 ft 184 kts
2026-05-09 11:11 0.11601 36.96520 8442 ft 184 kts
2026-05-09 11:12 0.12878 36.96653 8438 ft 184 kts
2026-05-09 11:12 0.14157 36.96788 8438 ft 185 kts
2026-05-09 11:12 0.15437 36.96922 8436 ft 185 kts
2026-05-09 11:12 0.16717 36.97050 8435 ft 185 kts
2026-05-09 11:13 0.17995 36.97184 8438 ft 185 kts
2026-05-09 11:13 0.19275 36.97321 8438 ft 185 kts
2026-05-09 11:13 0.20557 36.97455 8437 ft 185 kts
2026-05-09 11:13 0.21838 36.97587 8433 ft 185 kts
2026-05-09 11:14 0.23114 36.97720 8437 ft 184 kts
2026-05-09 11:14 0.24389 36.97853 8438 ft 184 kts
2026-05-09 11:14 0.25648 36.97985 8437 ft 185 kts
2026-05-09 11:14 0.26926 36.98119 8438 ft 184 kts
2026-05-09 11:15 0.28209 36.98255 8435 ft 185 kts
2026-05-09 11:15 0.29507 36.98392 8291 ft 193 kts
2026-05-09 11:15 0.30871 36.98538 8042 ft 201 kts
2026-05-09 11:15 0.32283 36.98685 7791 ft 206 kts
2026-05-09 11:16 0.33692 36.98832 7539 ft 207 kts
2026-05-09 11:16 0.35127 36.98981 7284 ft 207 kts
2026-05-09 11:16 0.36555 36.99127 7031 ft 205 kts
2026-05-09 11:16 0.37945 36.99275 6984 ft 195 kts
2026-05-09 11:17 0.39263 36.99413 7010 ft 186 kts
2026-05-09 11:17 0.40527 36.99544 7021 ft 183 kts
2026-05-09 11:17 0.41789 36.99675 7031 ft 181 kts
2026-05-09 11:17 0.43043 36.99806 7035 ft 181 kts
2026-05-09 11:18 0.44295 36.99940 7031 ft 180 kts
2026-05-09 11:18 0.45544 37.00070 7025 ft 179 kts
2026-05-09 11:18 0.46715 36.99963 6901 ft 163 kts 341°
2026-05-09 11:18 0.47667 36.99530 6726 ft 145 kts 330°
2026-05-09 11:19 0.48577 36.99107 6461 ft 142 kts 342°
2026-05-09 11:19 0.49432 36.99252 6258 ft 128 kts 48°
2026-05-09 11:19 0.49957 36.99938 5967 ft 114 kts 58°
2026-05-09 11:19 0.50365 37.00514 5827 ft 85 kts 54°
2026-05-09 11:20 0.50608 37.00853 5845 ft 43 kts 51°
2026-05-09 11:20 0.50686 37.00956 5853 ft 8 kts 91°
2026-05-09 11:20 0.50658 37.00935 5850 ft 12 kts 236°
2026-05-09 11:20 0.50593 37.00840 5844 ft 21 kts 236°
2026-05-09 11:21 0.50499 37.00707 5837 ft 23 kts 234°
2026-05-09 11:21 0.50416 37.00591 5830 ft 20 kts 235°
2026-05-09 11:21 0.50364 37.00555 5828 ft 5 kts 174°
2026-05-09 11:21 0.50343 37.00550 5827 ft 0 kts 238°
2026-05-09 11:29 0.50344 37.00550 5827 ft 0 kts 238°
2026-05-09 11:32 0.50344 37.00551 5827 ft 0 kts 238°